Location: B�rgermoos
(47.6500°N, 9.0667°E)
Time: 09:28:53
(UTC+00:00)

A-11 Canister half - Pass Details

Date: 05 August 2021
Orbit: 1526 x 1683 km, 47.3° (Epoch: 20 September)

Event Time Altitude Azimuth Distance (km) Brightness Sun altitude
Rises 10:44:37 0° 245° (WSW) 4,929 11.7 57.8°
Reaches altitude 10° 10:47:47 10° 244° (WSW) 3,943 11.3 58.0°
Maximum altitude 10:57:55 77° 161° (SSE) 1,712 11.1 58.5°
Drops below altitude 10° 11:07:53 10° 78° (ENE) 3,886 11.2 58.9°
Sets 11:10:59 0° 77° (ENE) 4,854 11.6 58.9°
